CGJBF CYQB-CYVO

Flight info

Callsign CGJBF
Flight time 1h 9m
Altitude 30000
Route IMORI DCT UDBAM DCT DICEN DCT BERUT
Aircraft TBM8/L-SDFGRWY/S

Departure

Time 2026-05-08 21:19
Airport Quebec Jean Lesage International Airport (CYQB)

Arrival

Time 2026-05-08 22:29
Airport Val-d'Or Airport (CYVO)
Time Latitude Longitude Altitude Speed Heading
2026-05-08 21:09 46.79044 -71.37390 238 ft 0 kts 319°
2026-05-08 21:16 46.79065 -71.37414 238 ft 10 kts 328°
2026-05-08 21:16 46.79143 -71.37502 238 ft 15 kts 317°
2026-05-08 21:16 46.79172 -71.37591 238 ft 12 kts 226°
2026-05-08 21:16 46.79105 -71.37688 238 ft 15 kts 227°
2026-05-08 21:17 46.79015 -71.37817 238 ft 20 kts 226°
2026-05-08 21:17 46.78919 -71.37972 238 ft 17 kts 255°
2026-05-08 21:17 46.78895 -71.38081 238 ft 7 kts 216°
2026-05-08 21:17 46.78857 -71.38094 238 ft 6 kts 181°
2026-05-08 21:18 46.78799 -71.38101 238 ft 11 kts 187°
2026-05-08 21:18 46.78725 -71.38135 237 ft 14 kts 222°
2026-05-08 21:18 46.78721 -71.38297 237 ft 24 kts 278°
2026-05-08 21:18 46.78768 -71.38803 236 ft 77 kts 278°
2026-05-08 21:19 46.78885 -71.39673 450 ft 94 kts 279°
2026-05-08 21:19 46.79025 -71.40652 784 ft 106 kts 277°
2026-05-08 21:19 46.79179 -71.41826 1079 ft 129 kts 278°
2026-05-08 21:19 46.79326 -71.43189 1425 ft 143 kts 274°
2026-05-08 21:20 46.79095 -71.44577 1927 ft 143 kts 238°
2026-05-08 21:20 46.78447 -71.45718 2341 ft 148 kts 234°
2026-05-08 21:20 46.77851 -71.46964 2848 ft 147 kts 236°
2026-05-08 21:20 46.77274 -71.48178 3413 ft 146 kts 237°
2026-05-08 21:21 46.76692 -71.49390 3986 ft 147 kts 237°
2026-05-08 21:21 46.76117 -71.50637 4584 ft 147 kts 238°
2026-05-08 21:21 46.75548 -71.51851 5102 ft 150 kts 237°
2026-05-08 21:21 46.74963 -71.53105 5647 ft 148 kts 238°
2026-05-08 21:22 46.74376 -71.54365 6160 ft 153 kts 238°
2026-05-08 21:22 46.73780 -71.55643 6693 ft 153 kts 237°
2026-05-08 21:22 46.73174 -71.56931 7172 ft 156 kts 237°
2026-05-08 21:22 46.72561 -71.58245 7675 ft 158 kts 238°
2026-05-08 21:23 46.71947 -71.59560 8227 ft 156 kts 238°
2026-05-08 21:23 46.71327 -71.60877 8704 ft 159 kts 237°
2026-05-08 21:23 46.70790 -71.62254 9214 ft 157 kts 252°
2026-05-08 21:23 46.70703 -71.63824 9712 ft 159 kts 280°
2026-05-08 21:24 46.71049 -71.65366 10179 ft 160 kts 283°
2026-05-08 21:24 46.71259 -71.66963 10631 ft 161 kts 277°
2026-05-08 21:24 46.71438 -71.68572 11083 ft 162 kts 278°
2026-05-08 21:24 46.71639 -71.70195 11541 ft 163 kts 279°
2026-05-08 21:25 46.71857 -71.71800 12003 ft 164 kts 280°
2026-05-08 21:25 46.72089 -71.73435 12459 ft 165 kts 280°
2026-05-08 21:25 46.72327 -71.75086 12917 ft 167 kts 281°
2026-05-08 21:25 46.72566 -71.76737 13356 ft 168 kts 281°
2026-05-08 21:26 46.72814 -71.78424 13786 ft 171 kts 281°
2026-05-08 21:26 46.73059 -71.80132 14182 ft 172 kts 281°
2026-05-08 21:26 46.73307 -71.81852 14590 ft 173 kts 281°
2026-05-08 21:26 46.73552 -71.83553 14996 ft 174 kts 280°
2026-05-08 21:27 46.73803 -71.85285 15400 ft 174 kts 280°
2026-05-08 21:27 46.74054 -71.87021 15808 ft 175 kts 280°
2026-05-08 21:27 46.74306 -71.88765 16218 ft 176 kts 280°
2026-05-08 21:27 46.74558 -71.90516 16626 ft 176 kts 280°
2026-05-08 21:28 46.74806 -71.92245 17039 ft 177 kts 280°
2026-05-08 21:28 46.75060 -71.94005 17447 ft 177 kts 280°
2026-05-08 21:28 46.75314 -71.95772 17848 ft 178 kts 280°
2026-05-08 21:28 46.75568 -71.97547 18231 ft 179 kts 280°
2026-05-08 21:29 46.75819 -71.99306 18561 ft 180 kts 280°
2026-05-08 21:29 46.76076 -72.01099 18895 ft 181 kts 280°
2026-05-08 21:29 46.76333 -72.02902 19225 ft 182 kts 279°
2026-05-08 21:29 46.76593 -72.04736 19477 ft 187 kts 280°
2026-05-08 21:30 46.76862 -72.06624 19742 ft 192 kts 280°
2026-05-08 21:30 46.77138 -72.08558 20001 ft 196 kts 280°
2026-05-08 21:30 46.77419 -72.10530 20265 ft 200 kts 280°
2026-05-08 21:30 46.77700 -72.12508 20536 ft 203 kts 280°
2026-05-08 21:31 46.77988 -72.14551 20804 ft 206 kts 280°
2026-05-08 21:31 46.78278 -72.16614 21080 ft 209 kts 280°
2026-05-08 21:31 46.78571 -72.18701 21351 ft 211 kts 280°
2026-05-08 21:31 46.78869 -72.20816 21625 ft 213 kts 280°
2026-05-08 21:32 46.79168 -72.22942 21900 ft 215 kts 280°
2026-05-08 21:32 46.79469 -72.25089 22176 ft 216 kts 280°
2026-05-08 21:32 46.79782 -72.27239 22458 ft 217 kts 283°
2026-05-08 21:32 46.80384 -72.29265 22732 ft 221 kts 300°
2026-05-08 21:33 46.81445 -72.30925 23008 ft 227 kts 314°
2026-05-08 21:33 46.82599 -72.32492 23297 ft 226 kts 310°
2026-05-08 21:33 46.83698 -72.34131 23557 ft 226 kts 309°
2026-05-08 21:33 46.84774 -72.35767 23792 ft 226 kts 309°
2026-05-08 21:34 46.85864 -72.37416 24034 ft 226 kts 310°
2026-05-08 21:34 46.86961 -72.39063 24280 ft 226 kts 310°
2026-05-08 21:34 46.88063 -72.40703 24529 ft 226 kts 310°
2026-05-08 21:34 46.89171 -72.42343 24791 ft 226 kts 310°
2026-05-08 21:35 46.90277 -72.43975 25039 ft 225 kts 310°
2026-05-08 21:35 46.91379 -72.45602 25284 ft 225 kts 310°
2026-05-08 21:35 46.92468 -72.47206 25533 ft 224 kts 310°
2026-05-08 21:35 46.93444 -72.48957 25783 ft 219 kts 296°
2026-05-08 21:36 46.93960 -72.51024 26043 ft 215 kts 283°
2026-05-08 21:36 46.94384 -72.53154 26186 ft 220 kts 285°
2026-05-08 21:36 46.94859 -72.55312 26320 ft 224 kts 286°
2026-05-08 21:36 46.95351 -72.57500 26475 ft 228 kts 286°
2026-05-08 21:37 46.95837 -72.59686 26614 ft 230 kts 286°
2026-05-08 21:37 46.96333 -72.61934 26746 ft 233 kts 286°
2026-05-08 21:37 46.96829 -72.64207 26876 ft 235 kts 285°
2026-05-08 21:37 46.97326 -72.66499 27018 ft 237 kts 285°
2026-05-08 21:38 46.97826 -72.68813 27152 ft 239 kts 285°
2026-05-08 21:38 46.98328 -72.71142 27301 ft 240 kts 285°
2026-05-08 21:38 46.98827 -72.73461 27429 ft 242 kts 285°
2026-05-08 21:38 46.99331 -72.75814 27571 ft 243 kts 285°
2026-05-08 21:39 46.99839 -72.78180 27711 ft 244 kts 286°
2026-05-08 21:39 47.00348 -72.80562 27849 ft 244 kts 286°
2026-05-08 21:39 47.00858 -72.82949 27992 ft 245 kts 286°
2026-05-08 21:39 47.01360 -72.85306 28133 ft 246 kts 286°
2026-05-08 21:40 47.01871 -72.87704 28279 ft 246 kts 286°
2026-05-08 21:40 47.02380 -72.90100 28425 ft 246 kts 286°
2026-05-08 21:40 47.02891 -72.92507 28579 ft 246 kts 286°
2026-05-08 21:41 47.03905 -72.97286 28871 ft 247 kts 286°
2026-05-08 21:41 47.04415 -72.99695 29026 ft 246 kts 285°
2026-05-08 21:41 47.04922 -73.02096 29164 ft 246 kts 286°
2026-05-08 21:41 47.05430 -73.04503 29320 ft 246 kts 286°
2026-05-08 21:42 47.05929 -73.06873 29460 ft 246 kts 286°
2026-05-08 21:42 47.06433 -73.09265 29611 ft 245 kts 286°
2026-05-08 21:42 47.06937 -73.11661 29760 ft 245 kts 286°
2026-05-08 21:42 47.07440 -73.14058 29826 ft 247 kts 286°
2026-05-08 21:43 47.07953 -73.16499 29838 ft 251 kts 286°
2026-05-08 21:43 47.08466 -73.18938 29841 ft 255 kts 286°
2026-05-08 21:43 47.08991 -73.21435 29849 ft 258 kts 286°
2026-05-08 21:43 47.09524 -73.23977 29845 ft 261 kts 286°
2026-05-08 21:44 47.10060 -73.26537 29849 ft 263 kts 286°
2026-05-08 21:44 47.10595 -73.29092 29851 ft 265 kts 286°
2026-05-08 21:44 47.11138 -73.31692 29842 ft 267 kts 286°
2026-05-08 21:44 47.11684 -73.34309 29838 ft 268 kts 286°
2026-05-08 21:45 47.12226 -73.36909 29837 ft 269 kts 286°
2026-05-08 21:45 47.12774 -73.39545 29840 ft 270 kts 286°
2026-05-08 21:45 47.13324 -73.42191 29839 ft 270 kts 286°
2026-05-08 21:45 47.13873 -73.44842 29840 ft 271 kts 286°
2026-05-08 21:46 47.14424 -73.47504 29840 ft 272 kts 286°
2026-05-08 21:46 47.14966 -73.50132 29840 ft 272 kts 286°
2026-05-08 21:46 47.15513 -73.52784 29839 ft 272 kts 286°
2026-05-08 21:46 47.16063 -73.55455 29839 ft 273 kts 286°
2026-05-08 21:47 47.16614 -73.58129 29834 ft 273 kts 286°
2026-05-08 21:47 47.17163 -73.60801 29839 ft 273 kts 286°
2026-05-08 21:47 47.17704 -73.63440 29836 ft 273 kts 286°
2026-05-08 21:47 47.18253 -73.66122 29838 ft 273 kts 286°
2026-05-08 21:48 47.18802 -73.68802 29838 ft 274 kts 286°
2026-05-08 21:48 47.19351 -73.71491 29842 ft 274 kts 286°
2026-05-08 21:48 47.19900 -73.74181 29840 ft 274 kts 286°
2026-05-08 21:48 47.20445 -73.76858 29839 ft 273 kts 286°
2026-05-08 21:49 47.20985 -73.79510 29836 ft 273 kts 286°
2026-05-08 21:49 47.21529 -73.82189 29834 ft 273 kts 286°
2026-05-08 21:49 47.22075 -73.84874 29835 ft 273 kts 286°
2026-05-08 21:49 47.22619 -73.87560 29834 ft 273 kts 286°
2026-05-08 21:50 47.23155 -73.90205 29837 ft 273 kts 286°
2026-05-08 21:50 47.23697 -73.92891 29837 ft 273 kts 286°
2026-05-08 21:50 47.24238 -73.95568 29833 ft 273 kts 285°
2026-05-08 21:50 47.24778 -73.98250 29836 ft 273 kts 285°
2026-05-08 21:51 47.25317 -74.00929 29832 ft 273 kts 285°
2026-05-08 21:51 47.25857 -74.03615 29832 ft 273 kts 285°
2026-05-08 21:51 47.26388 -74.06262 29830 ft 273 kts 285°
2026-05-08 21:51 47.26924 -74.08939 29831 ft 272 kts 286°
2026-05-08 21:52 47.27461 -74.11620 29832 ft 272 kts 285°
2026-05-08 21:52 47.27996 -74.14296 29827 ft 272 kts 285°
2026-05-08 21:52 47.28531 -74.16974 29830 ft 272 kts 285°
2026-05-08 21:52 47.29063 -74.19644 29831 ft 272 kts 286°
2026-05-08 21:53 47.29613 -74.22316 29829 ft 272 kts 285°
2026-05-08 21:53 47.30122 -74.24962 29829 ft 271 kts 284°
2026-05-08 21:53 47.30640 -74.27645 29830 ft 271 kts 286°
2026-05-08 21:53 47.31181 -74.30316 29831 ft 271 kts 285°
2026-05-08 21:54 47.31691 -74.32967 29824 ft 271 kts 285°
2026-05-08 21:54 47.32204 -74.35648 29823 ft 271 kts 285°
2026-05-08 21:54 47.32724 -74.38324 29826 ft 270 kts 285°
2026-05-08 21:54 47.33246 -74.40988 29825 ft 270 kts 285°
2026-05-08 21:55 47.33771 -74.43654 29824 ft 270 kts 285°
2026-05-08 21:55 47.34295 -74.46320 29826 ft 270 kts 285°
2026-05-08 21:55 47.34807 -74.48916 29832 ft 270 kts 285°
2026-05-08 21:56 47.35840 -74.54181 29831 ft 269 kts 285°
2026-05-08 21:56 47.36360 -74.56847 29826 ft 269 kts 285°
2026-05-08 21:56 47.36871 -74.59466 29829 ft 269 kts 285°
2026-05-08 21:56 47.37388 -74.62116 29827 ft 268 kts 285°
2026-05-08 21:57 47.37904 -74.64764 29827 ft 268 kts 285°
2026-05-08 21:57 47.38418 -74.67408 29830 ft 268 kts 285°
2026-05-08 21:57 47.38932 -74.70060 29830 ft 268 kts 285°
2026-05-08 21:57 47.39444 -74.72703 29832 ft 268 kts 285°
2026-05-08 21:58 47.39958 -74.75354 29830 ft 268 kts 285°
2026-05-08 21:58 47.40463 -74.77968 29824 ft 268 kts 285°
2026-05-08 21:58 47.40803 -74.79729 29831 ft 268 kts 285°
2026-05-08 21:58 47.41314 -74.82376 29822 ft 267 kts 285°
2026-05-08 21:59 47.41989 -74.85885 29829 ft 267 kts 285°
2026-05-08 21:59 47.42339 -74.87673 29835 ft 267 kts 286°
2026-05-08 21:59 47.42844 -74.90280 29834 ft 267 kts 285°
2026-05-08 21:59 47.43350 -74.92938 29829 ft 267 kts 285°
2026-05-08 22:00 47.43853 -74.95582 29829 ft 267 kts 285°
2026-05-08 22:00 47.44348 -74.98184 29829 ft 266 kts 285°
2026-05-08 22:00 47.44852 -75.00827 29832 ft 266 kts 285°
2026-05-08 22:00 47.45354 -75.03459 29834 ft 266 kts 285°
2026-05-08 22:01 47.45853 -75.06091 29850 ft 266 kts 285°
2026-05-08 22:01 47.46352 -75.08733 29838 ft 266 kts 285°
2026-05-08 22:01 47.46851 -75.11349 29837 ft 267 kts 285°
2026-05-08 22:01 47.47355 -75.14003 29835 ft 267 kts 285°
2026-05-08 22:02 47.47858 -75.16650 29829 ft 267 kts 285°
2026-05-08 22:02 47.48352 -75.19262 29827 ft 267 kts 285°
2026-05-08 22:02 47.48853 -75.21910 29828 ft 267 kts 285°
2026-05-08 22:02 47.49353 -75.24562 29832 ft 267 kts 285°
2026-05-08 22:03 47.49855 -75.27209 29831 ft 267 kts 286°
2026-05-08 22:03 47.50347 -75.29826 29831 ft 267 kts 285°
2026-05-08 22:03 47.50843 -75.32476 29830 ft 267 kts 285°
2026-05-08 22:03 47.51339 -75.35125 29831 ft 267 kts 285°
2026-05-08 22:04 47.51837 -75.37783 29830 ft 267 kts 285°
2026-05-08 22:04 47.52333 -75.40434 29828 ft 267 kts 285°
2026-05-08 22:04 47.52820 -75.43049 29829 ft 267 kts 285°
2026-05-08 22:04 47.53315 -75.45702 29828 ft 266 kts 285°
2026-05-08 22:05 47.53807 -75.48348 29826 ft 266 kts 285°
2026-05-08 22:05 47.54300 -75.50999 29826 ft 266 kts 285°
2026-05-08 22:05 47.54786 -75.53617 29828 ft 266 kts 285°
2026-05-08 22:05 47.55276 -75.56260 29827 ft 266 kts 285°
2026-05-08 22:06 47.55768 -75.58911 29829 ft 266 kts 285°
2026-05-08 22:06 47.56259 -75.61567 29823 ft 266 kts 285°
2026-05-08 22:06 47.56748 -75.64216 29826 ft 266 kts 285°
2026-05-08 22:06 47.57235 -75.66833 29823 ft 266 kts 286°
2026-05-08 22:07 47.57723 -75.69479 29826 ft 266 kts 286°
2026-05-08 22:07 47.58207 -75.72124 29826 ft 265 kts 286°
2026-05-08 22:07 47.58695 -75.74789 29631 ft 271 kts 286°
2026-05-08 22:07 47.59190 -75.77486 29232 ft 276 kts 286°
2026-05-08 22:08 47.59699 -75.80268 28816 ft 277 kts 286°
2026-05-08 22:08 47.60197 -75.82996 28437 ft 278 kts 286°
2026-05-08 22:08 47.60705 -75.85775 28046 ft 279 kts 286°
2026-05-08 22:08 47.61214 -75.88565 27660 ft 280 kts 285°
2026-05-08 22:09 47.61716 -75.91325 27284 ft 281 kts 285°
2026-05-08 22:09 47.62226 -75.94132 26908 ft 282 kts 285°
2026-05-08 22:09 47.62739 -75.96953 26535 ft 283 kts 285°
2026-05-08 22:09 47.63252 -75.99781 26170 ft 284 kts 285°
2026-05-08 22:10 47.63760 -76.02584 25813 ft 285 kts 285°
2026-05-08 22:10 47.64273 -76.05417 25456 ft 283 kts 285°
2026-05-08 22:10 47.64785 -76.08253 25105 ft 284 kts 285°
2026-05-08 22:10 47.65296 -76.11096 24757 ft 285 kts 285°
2026-05-08 22:11 47.65803 -76.13912 24422 ft 286 kts 285°
2026-05-08 22:11 47.66317 -76.16772 24083 ft 287 kts 285°
2026-05-08 22:11 47.66832 -76.19646 23748 ft 288 kts 285°
2026-05-08 22:11 47.67347 -76.22529 23409 ft 289 kts 285°
2026-05-08 22:12 47.67858 -76.25389 23021 ft 291 kts 285°
2026-05-08 22:12 47.68377 -76.28296 22623 ft 292 kts 285°
2026-05-08 22:12 47.68899 -76.31234 22233 ft 293 kts 285°
2026-05-08 22:12 47.69421 -76.34166 21854 ft 294 kts 284°
2026-05-08 22:13 47.69944 -76.37113 21477 ft 295 kts 284°
2026-05-08 22:13 47.70468 -76.40068 21099 ft 296 kts 284°
2026-05-08 22:13 47.70987 -76.43000 20736 ft 297 kts 284°
2026-05-08 22:13 47.71513 -76.45979 20377 ft 297 kts 284°
2026-05-08 22:14 47.72043 -76.48966 20021 ft 298 kts 284°
2026-05-08 22:14 47.72570 -76.51932 19669 ft 299 kts 284°
2026-05-08 22:14 47.73105 -76.54935 19319 ft 301 kts 284°
2026-05-08 22:14 47.73636 -76.57944 18970 ft 301 kts 284°
2026-05-08 22:15 47.74168 -76.60963 18626 ft 302 kts 284°
2026-05-08 22:15 47.74696 -76.63982 18287 ft 302 kts 284°
2026-05-08 22:15 47.75216 -76.66956 17921 ft 302 kts 283°
2026-05-08 22:15 47.75749 -76.69965 17475 ft 299 kts 284°
2026-05-08 22:16 47.76277 -76.72957 17030 ft 298 kts 283°
2026-05-08 22:16 47.76794 -76.75935 16598 ft 296 kts 283°
2026-05-08 22:16 47.77307 -76.78899 16172 ft 295 kts 283°
2026-05-08 22:16 47.77806 -76.81805 15757 ft 293 kts 283°
2026-05-08 22:17 47.78307 -76.84724 15345 ft 292 kts 283°
2026-05-08 22:17 47.78811 -76.87647 14932 ft 290 kts 283°
2026-05-08 22:17 47.79312 -76.90546 14524 ft 287 kts 282°
2026-05-08 22:17 47.79798 -76.93378 14135 ft 285 kts 282°
2026-05-08 22:18 47.80285 -76.96254 13733 ft 285 kts 282°
2026-05-08 22:18 47.80771 -76.99113 13305 ft 284 kts 282°
2026-05-08 22:18 47.81259 -77.01951 12862 ft 282 kts 282°
2026-05-08 22:18 47.81739 -77.04730 12439 ft 278 kts 282°
2026-05-08 22:19 47.82220 -77.07493 12022 ft 273 kts 282°
2026-05-08 22:19 47.82684 -77.10225 11592 ft 270 kts 281°
2026-05-08 22:19 47.83130 -77.12930 11163 ft 267 kts 281°
2026-05-08 22:19 47.83576 -77.15606 10757 ft 265 kts 281°
2026-05-08 22:20 47.84019 -77.18261 10350 ft 263 kts 281°
2026-05-08 22:20 47.84457 -77.20869 9955 ft 261 kts 281°
2026-05-08 22:20 47.84898 -77.23484 9548 ft 259 kts 281°
2026-05-08 22:20 47.85336 -77.26086 9107 ft 257 kts 281°
2026-05-08 22:21 47.85763 -77.28631 8678 ft 255 kts 281°
2026-05-08 22:21 47.86196 -77.31218 8243 ft 254 kts 281°
2026-05-08 22:21 47.86617 -77.33732 7810 ft 252 kts 281°
2026-05-08 22:21 47.87042 -77.36269 7389 ft 252 kts 281°
2026-05-08 22:22 47.87466 -77.38805 6970 ft 251 kts 281°
2026-05-08 22:22 47.87888 -77.41333 6561 ft 250 kts 281°
2026-05-08 22:22 47.88304 -77.43822 6166 ft 250 kts 281°
2026-05-08 22:22 47.88720 -77.46343 5738 ft 251 kts 281°
2026-05-08 22:23 47.89141 -77.48867 5308 ft 250 kts 281°
2026-05-08 22:23 47.89559 -77.51358 4884 ft 249 kts 281°
2026-05-08 22:23 47.89976 -77.53878 4464 ft 249 kts 281°
2026-05-08 22:23 47.90078 -77.56421 4030 ft 245 kts 259°
2026-05-08 22:24 47.89707 -77.58891 3614 ft 244 kts 257°
2026-05-08 22:24 47.89381 -77.61288 3554 ft 234 kts 258°
2026-05-08 22:24 47.89083 -77.63644 3529 ft 227 kts 258°
2026-05-08 22:24 47.88788 -77.65941 3532 ft 223 kts 258°
2026-05-08 22:25 47.88494 -77.68203 3519 ft 221 kts 258°
2026-05-08 22:25 47.88229 -77.70458 3510 ft 219 kts 263°
2026-05-08 22:25 47.88594 -77.72611 3509 ft 223 kts 301°
2026-05-08 22:25 47.89866 -77.73842 3506 ft 224 kts 341°
2026-05-08 22:26 47.91403 -77.74207 3519 ft 220 kts 345°
2026-05-08 22:26 47.92896 -77.74697 3476 ft 220 kts 342°
2026-05-08 22:26 47.94410 -77.75178 3173 ft 229 kts 345°
2026-05-08 22:26 47.96003 -77.75598 2828 ft 231 kts 346°
2026-05-08 22:27 47.97564 -77.76009 2499 ft 223 kts 346°
2026-05-08 22:27 47.98943 -77.76378 2218 ft 181 kts 345°
2026-05-08 22:27 48.00084 -77.76728 2006 ft 152 kts 343°
2026-05-08 22:27 48.01050 -77.77010 1797 ft 133 kts 343°
2026-05-08 22:28 48.01944 -77.77295 1547 ft 132 kts 344°
2026-05-08 22:28 48.02829 -77.77533 1369 ft 125 kts 343°
2026-05-08 22:28 48.03657 -77.77790 1216 ft 121 kts 345°
2026-05-08 22:28 48.04459 -77.78015 1108 ft 110 kts 340°
2026-05-08 22:29 48.05160 -77.78186 1109 ft 93 kts 345°
2026-05-08 22:29 48.05664 -77.78347 1099 ft 37 kts 355°
2026-05-08 22:29 48.05694 -77.78381 1100 ft 12 kts 172°
2026-05-08 22:29 48.05568 -77.78345 1100 ft 24 kts 167°
2026-05-08 22:30 48.05384 -77.78298 1099 ft 22 kts 167°
2026-05-08 22:30 48.05310 -77.78430 1101 ft 23 kts 257°
2026-05-08 22:30 48.05291 -77.78583 1104 ft 9 kts 272°
2026-05-08 22:30 48.05301 -77.78607 1102 ft 0 kts
2026-05-08 22:32 48.05307 -77.78605 1102 ft 4 kts 34°
2026-05-08 22:32 48.05312 -77.78559 1101 ft 0 kts 93°